W3ZTB Weather Reports


time (UTC)temp
F
wind
direction
speed
knots
gust
knots
rain 1hr
in
rain 24hr
in
rain mn
in
humidity
%
barometer
mb
20260510022506 56 60 0.0 1.7 0.00 0.19 0.19 82 1010.8
20260510021519 57 82 0.9 0.9 0.00 0.19 0.19 81 1010.8
20260510020506 58 110 0.0 0.9 0.00 0.19 0.19 79 1010.7
20260510020022 58 110 0.0 0.9 0.00 0.19 0.19 79 1010.5
20260510015008 58 110 0.0 1.7 0.00 0.19 0.19 78 1010.3
20260510014524 58 110 0.9 1.7 0.00 0.19 0.19 78 1010.3
20260510014010 58 97 0.9 1.7 0.00 0.19 0.19 78 1010.2
20260510013504 58 102 0.9 1.7 0.00 0.19 0.19 78 1010.1
20260510013007 58 89 0.9 1.7 0.00 0.19 0.19 78 1010.0
20260510012505 59 87 0.0 0.9 0.00 0.19 0.19 77 1010.1
20260510011516 59 86 0.0 2.6 0.00 0.19 0.19 76 1010.0
20260510011006 59 87 0.9 2.6 0.00 0.19 0.19 76 1010.0
20260510010507 59 102 0.9 1.7 0.00 0.19 0.19 76 1009.9
20260510010019 59 94 0.0 1.7 0.00 0.19 0.19 75 1009.8
20260510004520 60 112 0.0 1.7 0.00 0.19 0.19 73 1009.5
20260510003506 60 115 0.9 4.3 0.00 0.19 0.19 73 1009.5
20260510002510 61 130 1.7 4.3 0.00 0.19 0.19 73 1009.6
20260510001511 61 165 1.7 3.5 0.00 0.19 0.19 72 1009.3
20260510001010 61 167 0.9 4.3 0.00 0.19 0.19 72 1009.3
20260510000017 62 144 2.6 5.2 0.00 0.19 0.19 70 1009.1
20260509235007 62 154 1.7 5.2 0.00 0.19 0.19 69 1009.2
20260509234520 63 139 1.7 5.2 0.00 0.19 0.19 69 1009.1
20260509233022 63 156 2.6 5.2 0.00 0.19 0.19 67 1009.2
20260509231007 64 151 1.7 4.3 0.00 0.19 0.19 66 1009.1
20260509230012 65 130 0.0 4.3 0.00 0.19 0.19 65 1009.1
20260509225003 65 172 1.7 4.3 0.00 0.19 0.19 65 1009.1
20260509224504 65 191 0.9 4.3 0.00 0.19 0.19 66 1009.1
20260509224003 65 132 2.6 4.3 0.00 0.19 0.19 65 1009.2
20260509223503 65 117 0.9 4.3 0.00 0.19 0.19 65 1009.2
20260509223005 65 215 1.7 3.5 0.00 0.19 0.19 66 1009.2
20260509222004 64 293 0.9 4.3 0.00 0.19 0.19 67 1009.2
20260509221526 64 231 2.6 4.3 0.00 0.19 0.19 66 1009.2
20260509220009 64 270 2.6 4.3 0.00 0.19 0.19 66 1009.2
20260509214515 64 117 1.7 4.3 0.00 0.19 0.19 66 1009.4
20260509214006 64 174 1.7 4.3 0.00 0.19 0.19 66 1009.4
20260509213006 63 167 2.6 5.2 0.00 0.19 0.19 67 1009.5
20260509212502 64 148 3.5 5.2 0.00 0.19 0.19 67 1009.5
20260509212007 63 88 1.7 5.2 0.00 0.19 0.19 67 1009.5
20260509211513 64 171 2.6 4.3 0.00 0.19 0.19 67 1009.5
20260509210008 62 118 0.9 3.5 0.00 0.19 0.19 74 1009.6
20260509204514 60 90 0.9 1.7 0.00 0.19 0.19 76 1010.0
20260509204007 60 56 0.0 1.7 0.00 0.19 0.19 77 1010.1
20260509203018 59 53 0.0 2.6 0.00 0.19 0.19 77 1010.2
20260509201506 59 52 0.9 3.5 0.00 0.19 0.19 78 1010.0
20260509201001 59 37 1.7 3.5 0.00 0.19 0.19 78 1009.8
20260509200503 59 64 1.7 3.5 0.00 0.19 0.19 79 1009.6
20260509200006 59 94 1.7 3.5 0.00 0.19 0.19 79 1009.6
20260509195004 59 34 2.6 3.5 0.00 0.19 0.19 77 1010.0
20260509194518 59 77 1.7 3.5 0.00 0.19 0.19 75 1010.3
20260509193014 61 41 0.9 1.7 0.00 0.19 0.19 74 1010.1
20260509192009 60 262 0.0 2.6 0.00 0.19 0.19 74 1010.5
20260509191520 60 297 0.0 2.6 0.00 0.19 0.19 73 1010.6
20260509191008 60 218 0.0 2.6 0.00 0.19 0.19 76 1010.7
20260509190008 59 93 0.9 4.3 0.00 0.19 0.19 78 1010.8
20260509185503 59 165 0.9 4.3 0.00 0.19 0.19 77 1011.0
20260509185003 59 117 0.0 4.3 0.00 0.19 0.19 79 1011.1
20260509184527 58 152 0.9 4.3 0.00 0.19 0.19 79 1011.3
20260509183012 58 212 1.7 4.3 0.00 0.19 0.19 80 1011.2
20260509181015 56 42 0.9 2.6 0.00 0.19 0.19 84 1011.1
20260509180024 56 105 0.0 1.7 0.00 0.19 0.19 86 1011.0
20260509174524 55 139 0.0 0.9 0.00 0.19 0.19 85 1011.3
20260509174008 55 144 0.0 0.9 0.00 0.19 0.19 86 1011.4
20260509172505 55 211 0.0 1.7 0.00 0.19 0.19 87 1011.8
20260509171520 55 221 0.0 3.5 0.00 0.19 0.19 87 1011.8
20260509170507 55 225 0.9 3.5 0.01 0.19 0.19 86 1012.0
20260509170032 54 218 0.9 3.5 0.02 0.19 0.19 87 1011.9
20260509165506 54 198 0.9 3.5 0.02 0.19 0.19 87 1012.0
20260509164526 54 181 2.6 5.2 0.04 0.19 0.19 87 1011.9
20260509164014 54 191 1.7 4.3 0.05 0.19 0.19 88 1011.8
20260509163010 54 231 0.9 3.5 0.08 0.19 0.19 88 1011.6
20260509162503 53 169 0.9 2.6 0.09 0.19 0.19 88 1011.4
20260509160504 53 18 2.6 6.1 0.14 0.18 0.18 86 1011.3
20260509155505 53 110 0.9 3.5 0.14 0.17 0.17 86 1011.5
20260509154007 53 228 0.0 1.7 0.12 0.14 0.14 83 1012.3
20260509150503 54 234 0.9 1.7 0.04 0.04 0.04 80 1012.5
20260509150015 54 209 0.9 1.7 0.04 0.04 0.04 80 1012.4
20260509145503 55 222 0.9 1.7 0.03 0.03 0.03 79 1012.4
20260509145008 55 272 0.9 2.6 0.03 0.03 0.03 79 1012.4
20260509144006 55 162 0.9 2.6 0.02 0.02 0.02 78 1012.2
20260509143508 55 165 1.7 2.6 0.02 0.02 0.02 75 1012.2
20260509142506 55 176 0.9 2.6 0.00 0.00 0.00 75 1012.1
20260509142012 56 218 0.0 2.6 0.00 0.00 0.00 75 1012.1
20260509141535 56 156 0.9 4.3 0.00 0.00 0.00 74 1012.1
20260509140026 56 152 1.7 3.5 0.00 0.00 0.00 71 1011.9
20260509135506 56 169 0.0 3.5 0.00 0.00 0.00 72 1011.9
20260509135007 56 183 1.7 3.5 0.00 0.00 0.00 73 1011.9
20260509134518 55 258 0.0 5.2 0.00 0.00 0.00 74 1011.9
20260509134001 55 212 0.9 5.2 0.00 0.00 0.00 74 1011.8
20260509132504 55 174 1.7 4.3 0.00 0.00 0.00 76 1011.8
20260509132002 55 202 0.9 3.5 0.00 0.00 0.00 76 1011.8
20260509131004 54 109 2.6 3.5 0.00 0.00 0.00 75 1011.7
20260509130504 54 137 1.7 2.6 0.00 0.00 0.00 77 1011.5
20260509130008 54 141 0.9 3.5 0.00 0.00 0.00 76 1011.4
20260509125504 54 60 1.7 4.3 0.00 0.00 0.00 77 1011.1
20260509125008 54 64 2.6 5.2 0.00 0.00 0.00 77 1011.1
20260509124529 54 65 2.6 5.2 0.00 0.00 0.00 77 1011.2
20260509124004 54 56 2.6 4.3 0.00 0.00 0.00 77 1011.1
20260509123504 54 56 1.7 3.5 0.00 0.00 0.00 76 1011.4
20260509121004 54 266 0.9 1.7 0.00 0.00 0.00 74 1011.8
20260509120507 54 267 0.0 0.9 0.00 0.00 0.00 73 1011.7
20260509115505 54 155 0.0 1.7 0.00 0.00 0.00 73 1011.6
20260509115004 54 62 0.9 1.7 0.00 0.00 0.00 72 1011.4
20260509114524 54 63 0.9 1.7 0.00 0.00 0.00 72 1011.3
20260509114006 54 36 0.0 1.7 0.00 0.00 0.00 72 1011.4
20260509113504 54 266 0.0 1.7 0.00 0.00 0.00 72 1011.5
20260509112505 54 61 1.7 1.7 0.00 0.00 0.00 73 1011.1
20260509112007 54 269 0.0 1.7 0.00 0.00 0.00 73 1011.3
20260509111524 53 269 0.9 1.7 0.00 0.00 0.00 73 1011.3
20260509111007 53 83 0.9 1.7 0.00 0.00 0.00 73 1011.1
20260509110504 53 63 1.7 2.6 0.00 0.00 0.00 73 1011.0
20260509110018 53 250 0.9 2.6 0.00 0.00 0.00 73 1011.4
20260509105505 53 54 0.9 2.6 0.00 0.00 0.00 73 1010.9
20260509105005 53 72 0.9 4.3 0.00 0.00 0.00 73 1010.8
20260509104510 53 110 2.6 4.3 0.00 0.00 0.00 73 1010.9
20260509104004 53 64 1.7 2.6 0.00 0.00 0.00 72 1010.9
20260509103503 53 65 0.0 1.7 0.00 0.00 0.00 72 1011.0
20260509103017 53 58 0.9 1.7 0.00 0.00 0.00 72 1011.0
20260509102506 53 344 0.9 2.6 0.00 0.00 0.00 72 1011.1
20260509102009 53 37 0.9 2.6 0.00 0.00 0.00 72 1010.9
20260509101523 53 62 1.7 2.6 0.00 0.00 0.00 71 1010.9
20260509101005 53 52 0.9 1.7 0.00 0.00 0.00 71 1010.9
20260509100507 53 68 0.9 2.6 0.00 0.00 0.00 71 1010.8
20260509100028 53 58 0.9 2.6 0.00 0.00 0.00 71 1010.9
20260509095507 54 53 1.7 2.6 0.00 0.00 0.00 70 1010.8
20260509095005 54 94 0.0 1.7 0.00 0.00 0.00 70 1010.8
20260509094506 54 108 0.9 1.7 0.00 0.00 0.00 70 1010.8
20260509094001 54 108 0.0 2.6 0.00 0.00 0.00 70 1010.8
20260509093504 54 78 0.9 2.6 0.00 0.00 0.00 69 1010.9
20260509093019 54 39 0.9 2.6 0.00 0.00 0.00 69 1011.0
20260509092504 54 75 0.9 2.6 0.00 0.00 0.00 69 1010.9
20260509092004 54 59 0.0 3.5 0.00 0.00 0.00 69 1011.0
20260509091520 54 63 1.7 5.2 0.00 0.00 0.00 69 1011.0
20260509091008 54 56 1.7 5.2 0.00 0.00 0.00 69 1010.9
20260509090507 54 105 1.7 4.3 0.00 0.00 0.00 69 1010.9
20260509090026 54 103 2.6 4.3 0.00 0.00 0.00 69 1011.0
20260509085507 54 90 0.9 2.6 0.00 0.00 0.00 68 1010.9
20260509085007 54 84 0.9 3.5 0.00 0.00 0.00 68 1010.9
20260509084523 54 121 0.0 3.5 0.00 0.00 0.00 68 1011.0
20260509084007 54 153 1.7 3.5 0.00 0.00 0.00 68 1011.1
20260509083503 54 59 0.9 4.3 0.00 0.00 0.00 67 1011.1
20260509083007 54 112 1.7 4.3 0.00 0.00 0.00 67 1011.2
20260509082506 55 122 0.9 5.2 0.00 0.00 0.00 66 1011.1
20260509082007 55 109 0.9 5.2 0.00 0.00 0.00 66 1011.1
20260509081531 55 116 1.7 5.2 0.00 0.00 0.00 66 1011.1
20260509081010 55 97 0.0 3.5 0.00 0.00 0.00 66 1011.1
20260509080507 55 62 0.9 3.5 0.00 0.00 0.00 66 1011.1
20260509080017 55 79 0.9 3.5 0.00 0.00 0.00 66 1011.3
20260509075510 54 110 1.7 2.6 0.00 0.00 0.00 66 1011.3
20260509075007 54 12 0.0 0.9 0.00 0.00 0.00 66 1011.3
20260509074524 54 12 0.0 0.9 0.00 0.00 0.00 66 1011.3
20260509074008 54 56 0.0 0.9 0.00 0.00 0.00 66 1011.3
20260509073507 54 72 0.0 0.9 0.00 0.00 0.00 66 1011.3
20260509073025 54 93 0.0 0.9 0.00 0.00 0.00 65 1011.3
20260509072515 54 94 0.0 1.7 0.00 0.00 0.00 65 1011.3
20260509072013 54 110 0.9 3.5 0.00 0.00 0.00 65 1011.4
20260509071513 54 64 0.9 3.5 0.00 0.00 0.00 66 1011.4
20260509071003 54 34 0.9 2.6 0.00 0.00 0.00 66 1011.5
20260509070503 54 115 0.9 2.6 0.00 0.00 0.00 66 1011.6
20260509070014 54 34 0.9 2.6 0.00 0.00 0.00 66 1011.6
20260509065502 54 58 1.7 2.6 0.00 0.00 0.00 66 1011.5
20260509065002 54 48 0.9 2.6 0.00 0.00 0.00 66 1011.6
20260509064504 54 60 0.9 2.6 0.00 0.00 0.00 66 1011.6
20260509064003 54 66 0.9 1.7 0.00 0.00 0.00 66 1011.7
20260509063504 55 53 0.0 1.7 0.00 0.00 0.00 66 1011.8
20260509063005 55 84 0.0 2.6 0.00 0.00 0.00 66 1011.8
20260509062503 55 72 0.0 2.6 0.00 0.00 0.00 66 1011.8
20260509062003 55 75 0.0 1.7 0.00 0.00 0.00 66 1011.8
20260509061508 55 39 0.0 0.9 0.00 0.00 0.00 66 1011.9
20260509061006 55 39 0.0 2.6 0.00 0.00 0.00 66 1011.8
20260509060505 55 56 0.9 2.6 0.00 0.00 0.00 66 1011.7
20260509060015 55 25 0.9 1.7 0.00 0.00 0.00 66 1011.8
20260509055504 55 4 0.9 1.7 0.00 0.00 0.00 66 1011.9
20260509055006 55 31 0.0 3.5 0.00 0.00 0.00 66 1011.9
20260509054003 55 53 1.7 3.5 0.00 0.00 0.00 65 1011.8
20260509053503 55 41 2.6 3.5 0.00 0.00 0.00 65 1011.9
20260509053008 56 53 1.7 3.5 0.00 0.00 0.00 65 1011.9
20260509052504 56 61 0.9 4.3 0.00 0.00 0.00 65 1011.9
20260509052003 56 64 1.7 4.3 0.00 0.00 0.00 64 1012.0
20260509051505 56 105 0.9 2.6 0.00 0.00 0.00 65 1012.0
20260509051004 56 56 1.7 3.5 0.00 0.00 0.00 64 1012.1
20260509050504 56 60 1.7 3.5 0.00 0.00 0.00 64 1012.2
20260509050032 56 60 0.9 3.5 0.00 0.00 0.00 65 1012.2
20260509045504 56 60 1.7 3.5 0.00 0.00 0.00 65 1012.2
20260509045004 56 70 1.7 2.6 0.00 0.00 0.00 65 1012.3
20260509044517 56 70 0.9 2.6 0.00 0.00 0.00 65 1012.2
20260509044006 56 32 1.7 2.6 0.00 0.00 0.00 65 1012.3
20260509043504 56 44 1.7 2.6 0.00 0.00 0.00 65 1012.3
20260509043025 56 68 1.7 2.6 0.00 0.00 0.00 65 1012.2
20260509042503 56 72 0.0 0.9 0.00 0.00 0.00 64 1012.2
20260509042005 57 56 0.0 3.5 0.00 0.00 0.00 64 1012.1
20260509041507 57 50 1.7 3.5 0.00 0.00 0.00 63 1012.2
20260509041004 57 41 0.9 2.6 0.00 0.00 0.00 62 1012.2
20260509040506 58 53 1.7 2.6 0.00 0.00 0.00 60 1012.2
20260509040005 58 76 0.9 2.6 0.00 0.00 0.00 60 1012.2
20260509035506 58 88 0.9 2.6 0.00 0.00 0.00 59 1012.3
20260509035008 58 66 1.7 2.6 0.00 0.00 0.00 59 1012.3
20260509034512 58 50 0.9 1.7 0.00 0.00 0.00 60 1012.5
20260509034011 58 66 0.0 0.9 0.00 0.00 0.00 61 1012.5
20260509033505 59 139 0.0 2.6 0.00 0.00 0.00 60 1012.6
20260509033014 59 140 0.9 2.6 0.00 0.00 0.00 60 1012.7
20260509032507 59 143 0.0 2.6 0.00 0.00 0.00 62 1012.7
20260509032007 59 99 0.0 2.6 0.00 0.00 0.00 62 1012.5
20260509031528 59 65 0.9 1.7 0.00 0.00 0.00 62 1012.5
20260509031003 59 60 0.9 1.7 0.00 0.00 0.00 62 1012.6
20260509030503 59 153 0.0 0.9 0.00 0.00 0.00 60 1012.7
20260509030015 59 197 0.0 2.6 0.00 0.00 0.00 60 1012.7
20260509025503 59 197 0.0 2.6 0.00 0.00 0.00 60 1012.7
20260509025003 59 193 0.9 2.6 0.00 0.00 0.00 61 1012.7
20260509024508 59 147 0.0 3.5 0.00 0.00 0.00 64 1012.6
20260509024004 59 211 0.9 3.5 0.00 0.00 0.00 64 1012.5
20260509023505 59 185 0.9 1.7 0.00 0.00 0.00 62 1012.5
20260509023024 58 256 0.0 0.9 0.00 0.00 0.00 58 1012.3